Regional Weather Roundup
Issued by NWS

Home | Current Version | Previous Version | Graphics & Text | Print | Product List | Glossary Off
Versions: 1 2 3 4 5 6 7 8 9 10 11 12 13 14 15 16 17 18 19 20 21 22 23 24 25 26 27 28 29 30 31 32 33 34 35 36 37 38 39 40 41 42 43 44 45 46 47

000
ASUS43 KDMX 031007
RWRIA

WEATHER ROUNDUP FOR IOWA
NATIONAL WEATHER SERVICE DES MOINES IA
500 AM CDT WED JUN 03 2015

NOTE: "FAIR" INDICATES FEW OR NO CLOUDS BELOW 12,000 FEET WITH NO
SIGNIFICANT WEATHER AND/OR OBSTRUCTIONS TO VISIBILITY.

* - THESE STATIONS ARE NOT NWS STATIONS...THUS NOT UNDER NWS
QUALITY CONTROL.  THEY ALSO DO NOT REPORT WEATHER SUCH
AS PRECIPITATION OR FOG.

IAZ001>003-012>014-020>022-031>034-043>046-031100-
   NORTHWEST IOWA

CITY           SKY/WX    TMP DP  RH WIND       PRES   REMARKS
CARROLL *      MOCLDY    61  57  88 S9        29.87F
CHEROKEE *     CLOUDY    63  61  94 S12       29.87R
DENISON *      HVY RAIN  63  63 100 SW17G29   29.88R VSB 1/2
LE MARS *      CLOUDY    63  61  94 S8        29.85F
ORANGE CITY *  PTCLDY    63  59  88 S8        29.85F
SHELDON *      CLOUDY    63  63 100 S10       29.84F
SIOUX CITY     RAIN      64  60  87 SW8       29.85F
SPENCER        CLOUDY    63  57  81 S13       29.86F
STORM LAKE *   CLOUDY    61  57  88 SW12G18   29.91R
$$

IAZ055>058-069>071-079>083-090>094-031100-
   SOUTHWEST IOWA

CITY           SKY/WX    TMP DP  RH WIND       PRES   REMARKS
ATLANTIC *     CLOUDY    63  57  82 S9        29.89S
AUDUBON *      CLEAR     61  55  82 S8        29.89F
CLARINDA *     MOCLDY    63  59  88 SE7       29.91S
COUNCIL BLFS * LGT RAIN  63  63 100 VRB5      29.91R
CRESTON *      MOCLDY    61  59  94 S12       29.92S
HARLAN  *      MOCLDY    66  64  94 SW26G38   29.93R
LAMONI         MOCLDY    63  56  78 SE13      29.93F
RED OAK *      CLOUDY    63  59  88 SE8G14    29.88F
SHENANDOAH *   MOCLDY    64  59  82 SE8       29.88S
$$

IAZ047>049-059>061-072>074-084-031100-
   CENTRAL IOWA

CITY           SKY/WX    TMP DP  RH WIND       PRES   REMARKS
AMES           CLOUDY    61  55  81 S10       29.93S
ANKENY *       CLOUDY    61  57  88 S10       29.94S
CHARITON *     CLOUDY    61  57  88 S12G17    29.95R
DES MOINES     MOCLDY    62  55  77 S10       29.94S
GRINNELL*      MOCLDY    59  55  88 SE9       29.97S
KNOXVILLE *    CLOUDY    59  55  88 S8        29.94R
MARSHALLTOWN   MOCLDY    59  55  87 SE9       29.94F
PELLA *        MOCLDY    59  59 100 SE7       29.97R
PERRY *        CLOUDY    61  55  82 SE10      29.91F
$$

IAZ004>006-015-016-023>025-035-036-031100-
   NORTH CENTRAL IOWA

CITY           SKY/WX    TMP DP  RH WIND       PRES   REMARKS
ALGONA *       CLOUDY    63  57  82 S15       29.88F
CLARION *      CLOUDY    63  55  77 S17       29.91F
ESTHERVILLE    CLOUDY    61  55  81 S16       29.86F
FORT DODGE *   MOCLDY    63  54  72 S10       29.91S
MASON CITY     CLOUDY    62  56  80 S15       29.94S
FOREST CITY *  CLOUDY    61  54  77 S10       29.91F
IOWA FALLS *   CLOUDY    61  55  82 S12G18    29.94S
$$

IAZ007>011-017>019-026>030-037>042-050>054-066-031100-
   NORTHEAST IOWA

CITY           SKY/WX    TMP DP  RH WIND       PRES   REMARKS
CEDAR RAPIDS   PTCLDY    54  54 100 SE5       29.99F
CHARLES CITY * CLOUDY    59  57  94 S14       29.96S
CLINTON *      PTCLDY    55  48  76 SE8       30.05R
DECORAH *      CLEAR     57  54  88 VRB6      29.97F
DUBUQUE        CLEAR     54  49  83 SE8       30.02S
MONTICELLO *   CLEAR     54  54 100 SE5       30.01S
OELWEIN *      CLEAR     57  54  88 S10       29.98F
WATERLOO       MOCLDY    59  54  83 SE8       29.96F
$$

IAZ064-065-067-068-078-031100-
   EAST CENTRAL IOWA

CITY           SKY/WX    TMP DP  RH WIND       PRES   REMARKS
DAVENPORT      PTCLDY    55  50  83 E7        30.03R
IOWA CITY      PTCLDY    56  53  90 CALM      30.01S
MT. PLEASANT * PTCLDY    55  55 100 S5        30.00S
MUSCATINE *    CLEAR     55  52  88 CALM      30.01S
QUAD CITIES    CLEAR     56  50  80 CALM      30.02R
$$

IAZ062-063-075>077-085>089-095>099-031100-
   SOUTHEAST IOWA

CITY           SKY/WX    TMP DP  RH WIND       PRES   REMARKS
BURLINGTON     CLEAR     57  55  93 S5        30.00F
FAIRFIELD *    CLEAR     55  52  88 SE8       29.99F
FORT MADISON * CLEAR     57  55  94 S3        30.01F FOG
KEOKUK *       CLEAR     59  57  94 S6        30.00S
OSKALOOSA *      N/A     55  54  94 SE7       29.98S
CENTERVILLE *  CLEAR     55  55 100 SE8       29.98F
OTTUMWA        PTCLDY    58  56  93 SE8       29.97F
WASHINGTON *   CLOUDY    57  55  94 SE5       30.01F
$$

ABBREVIATIONS USED IN REMARKS
   TC - TEMPERATURES IN CELSIUS
  WCI - WIND CHILL INDEX
   HX - HEAT INDEX
  VSB - VISIBILITY
$$




USA.gov is the U.S. government's official web portal to all federal, state and local government web resources and services.